Astrometry: A117LOC &C2022 05 10.39199518 17 08.80 -59 32 24.1 ~79LM 23.0 gWNEOCPW84 A117LOC &C2023 06 06.30197219 42 07.48 -76 10 08.2 ~79LM 20.9 zWNEOCPW84 A117LOC* C2024 06 29.42281704 52 44.549-39 09 57.60 ~6TGM 17.86oVNEOCPW68 A117LOC C2024 06 29.42694304 52 45.055-39 09 54.43 ~6TGM 17.69oVNEOCPW68 A117LOC C2024 06 29.43200904 52 45.622-39 09 50.94 ~6TGM 17.93oVNEOCPW68 A117LOC C2024 06 29.44441704 52 47.004-39 09 41.72 ~6TGM 18.37oVNEOCPW68 A117LOC C2024 06 30.17361 04 54 11.28 -39 00 35.9 ~6UBq 18.4 RoNEOCPK95 A117LOC C2024 06 30.17545 04 54 11.46 -39 00 34.6 ~6UBq 18.0 RoNEOCPK95 A117LOC C2024 06 30.18944 04 54 13.07 -39 00 23.7 ~6UBq 18.6 RoNEOCPK95 A117LOC C2024 06 30.19036 04 54 13.22 -39 00 23.2 ~6UBq 18.3 RoNEOCPK95 A117LOC C2024 06 30.19127 04 54 13.23 -39 00 21.1 ~6UBqx17.9 RoNEOCPK95 A117LOC C2024 06 30.33546004 54 30.04 -38 58 33.3 ~6U97 WNEOCPX09 A117LOC C2024 06 30.34881104 54 31.58 -38 58 23.9 ~6U97 WNEOCPX09 A117LOC C2024 06 30.36120104 54 32.99 -38 58 14.9 ~6U97 WNEOCPX09 A117LOC C2024 06 30.36686004 54 33.67 -38 58 11.1 ~6U97 WNEOCPX09 A117LOC C2024 06 30.40079904 54 37.52 -38 57 45.8 ~6UAb WNEOCPX09 A117LOC C2024 06 30.40859304 54 38.45 -38 57 39.8 ~6UAb WNEOCPX09 A117LOC C2024 06 30.42080204 54 39.80 -38 57 31.3 ~6UAb WNEOCPX09 A117LOC C2024 07 01.17565 04 56 06.45 -38 48 09.6 ~718M 18.1 RoNEOCPK95 A117LOC C2024 07 01.17749 04 56 06.68 -38 48 08.3 ~718M 18.0 RoNEOCPK95 A117LOC 0B2024 07 01.18568 04 56 07.694-38 48 02.23 ~7167 18.3 VZNEOCPM49 A117LOC 0B2024 07 01.19030 04 56 08.208-38 47 58.85 ~7167 19.1 VZNEOCPM49 A117LOC 0B2024 07 01.19457 04 56 08.688-38 47 55.36 ~7167 18.3 VZNEOCPM49 A117LOC C2024 07 01.34476004 56 25.92 -38 46 03.2 ~719M WNEOCPX09 A117LOC C2024 07 01.37359304 56 29.24 -38 45 42.0 ~719M WNEOCPX09 A117LOC C2024 07 01.39540104 56 31.72 -38 45 26.1 ~71Aq WNEOCPX09 A117LOC |C2024 07 01.41076004 56 33.490-38 45 15.20 ~71AM 18.0 GVNEOCP807 A117LOC |C2024 07 01.41223004 56 33.640-38 45 14.00 ~71AM 18.0 GVNEOCP807 A117LOC |C2024 07 01.41370004 56 33.820-38 45 13.10 ~71AM 18.2 GVNEOCP807 A117LOC |C2024 07 01.41516004 56 33.980-38 45 11.80 ~71AM 18.1 GVNEOCP807 A117LOC C2024 07 01.42502304 56 35.10 -38 45 04.5 ~71Aq WNEOCPX09 A117LOC C2024 07 01.43910 04 56 36.71 -38 44 54.3 ~71H7 18.2 GVNEOCPW79 A117LOC C2024 07 01.43999204 56 36.82 -38 44 53.9 ~71Aq WNEOCPX09 A117LOC C2024 07 01.44192 04 56 37.02 -38 44 52.3 ~71H7 18.4 GVNEOCPW79 A117LOC C2024 07 01.44473 04 56 37.35 -38 44 50.0 ~71H7 18.3 GVNEOCPW79 A117LOC KC2024 07 01.72595 04 57 09.49 -38 41 22.1 ~71LM 18.2 VqNEOCPE94 A117LOC KC2024 07 01.73701 04 57 10.75 -38 41 13.8 ~71LM 18.3 VqNEOCPE94 A117LOC KC2024 07 01.74766 04 57 11.96 -38 41 06.0 ~71LM 18.2 VqNEOCPE94 A117LOC 0C2024 07 03.39778 05 00 19.51 -38 20 55.4 ~75I7 VNEOCPX07 A117LOC 0C2024 07 03.39991 05 00 19.75 -38 20 54.2 ~75I7 17.6 GVNEOCPX07 A117LOC C2024 07 03.69647505 00 53.239-38 17 17.70 ~73HM 18.2 GVNEOCP474 A117LOC C2024 07 03.69849405 00 53.465-38 17 15.90 ~73HM 18.1 GVNEOCP474 A117LOC C2024 07 03.70051505 00 53.693-38 17 14.50 ~73HM 18.2 GVNEOCP474 A117LOC C2024 07 03.70253605 00 53.926-38 17 13.06 ~73HM 18.0 GVNEOCP474 A117LOC C2024 07 03.70455605 00 54.146-38 17 11.58 ~73HM 18.2 GVNEOCP474 A117LOC C2024 07 04.43913 05 02 16.87 -38 08 20.6 ~74G7 18.1 GVNEOCPW89 A117LOC C2024 07 04.44195 05 02 17.21 -38 08 18.2 ~74G7 17.8 GVNEOCPW89 A117LOC C2024 07 04.44477 05 02 17.53 -38 08 16.2 ~74G7 17.7 GVNEOCPW89 A117LOC "C2024 07 05.40264 05 04 04.80 -37 56 46.2 ~76Fq 17.7 GVNEOCPW88 A117LOC "C2024 07 05.40406 05 04 04.95 -37 56 45.0 ~76Fq 17.7 GVNEOCPW88 A117LOC KC2024 07 05.68259 05 04 36.03 -37 53 25.0 ~75MM 18.2 VqNEOCPE94 A117LOC KC2024 07 05.68340 05 04 36.09 -37 53 24.8 ~764M 18.2 VqNEOCPE94 A117LOC KC2024 07 05.71230 05 04 39.33 -37 53 04.0 ~75MM 17.9 VqNEOCPE94 A117LOC KC2024 07 05.71255 05 04 39.36 -37 53 03.7 ~764M 17.9 VqNEOCPE94 A117LOC KC2024 07 05.74183 05 04 42.61 -37 52 42.7 ~764M 18.1 VqNEOCPE94 A117LOC KC2024 07 05.74195 05 04 42.61 -37 52 43.2 ~75MM 17.9 VqNEOCPE94 A117LOC %C2024 07 06.39227 05 05 54.986-37 44 59.93 ~7A6b 17.7 GVNEOCPW88 A117LOC %C2024 07 06.39987 05 05 55.750-37 44 53.95 ~7A6b 18.1 GVNEOCPW88 A117LOC 3C2024 07 06.41686 05 05 57.655-37 44 42.11 ~76JM 18.0 GVNEOCPW88 A117LOC C2024 07 06.42339805 05 58.409-37 44 37.50 ~76Eq 17.86oVNEOCPW68 A117LOC C2024 07 06.42942805 05 59.071-37 44 33.50 ~76Eq 17.87oVNEOCPW68 A117LOC 3C2024 07 06.43081 05 05 59.150-37 44 32.82 ~76JM 17.7 GVNEOCPW88 A117LOC C2024 07 06.43366405 05 59.551-37 44 30.80 ~76Eq 17.66oVNEOCPW68 A117LOC C2024 07 06.44382005 06 00.655-37 44 23.78 ~76Eq 17.81oVNEOCPW68 A117LOC KC2024 07 06.71734 05 06 30.95 -37 41 08.4 ~76Iq 18.2 VqNEOCPE94 A117LOC KC2024 07 06.73287 05 06 32.68 -37 40 57.6 ~76Iq 18.1 VqNEOCPE94 A117LOC KC2024 07 06.74840 05 06 34.39 -37 40 46.8 ~76Iq 18.2 VqNEOCPE94 A117LOC C2024 07 06.82452 05 06 42.85 -37 39 53.2 ~76Kq 18.2 GVNEOCPQ59 A117LOC C2024 07 06.82733 05 06 43.13 -37 39 51.2 ~76Kq 18.2 GVNEOCPQ59 A117LOC C2024 07 06.83015 05 06 43.47 -37 39 49.1 ~76Kq 17.9 GVNEOCPQ59 A117LOC KC2024 07 07.37597 05 07 43.76 -37 33 22.0 ~77Ab 18.3 VqNEOCPI47 A117LOC KC2024 07 07.39250 05 07 45.60 -37 33 10.9 ~77Ab 18.2 VqNEOCPI47 A117LOC KC2024 07 07.41163 05 07 47.66 -37 32 57.6 ~77Ab 18.2 VqNEOCPI47 A117LOC C2024 07 07.42144705 07 48.763-37 32 50.96 ~780b 18.05oVNEOCPW68 A117LOC C2024 07 07.42553305 07 49.190-37 32 48.34 ~780b 18.00oVNEOCPW68 A117LOC C2024 07 07.43295005 07 50.011-37 32 42.86 ~780b 17.89oVNEOCPW68 A117LOC "C2024 07 07.44039 05 07 50.82 -37 32 37.7 ~7BKb 17.8 GVNEOCPW88 A117LOC "C2024 07 07.44179 05 07 51.03 -37 32 36.8 ~7BKb 17.7 GVNEOCPW88 A117LOC KC2024 07 07.69999 05 08 19.41 -37 29 34.3 ~77L7 18.0 VqNEOCPE94 A117LOC KC2024 07 07.72281 05 08 21.92 -37 29 18.5 ~77L7 18.2 VqNEOCPE94 A117LOC KC2024 07 07.74541 05 08 24.40 -37 29 02.9 ~77L7 18.1 VqNEOCPE94 A117LOC KC2024 07 08.39023 05 09 35.21 -37 21 30.2 ~7BFb 17.9 GVNEOCPX03 A117LOC KC2024 07 08.39201 05 09 35.40 -37 21 29.1 ~7BFb 18.0 GVNEOCPX03 A117LOC C2024 07 08.39439 05 09 35.66 -37 21 27.5 ~7BFb 18.0 GVNEOCPX03 A117LOC &C2024 07 08.40822 05 09 37.17 -37 21 18.0 ~78F7 VNEOCPX07 A117LOC &C2024 07 08.41308 05 09 37.71 -37 21 14.6 ~78F7 VNEOCPX07 A117LOC &C2024 07 08.41791 05 09 38.22 -37 21 11.2 ~78F7 18.4 TVNEOCPX07 A117LOC %C2024 07 08.41869 05 09 38.311-37 21 10.40 ~798b 18.4 GVNEOCPW88 A117LOC %C2024 07 08.42715 05 09 39.230-37 21 04.72 ~798b 18.2 GVNEOCPW88 A117LOC C2024 07 10.81414 05 13 58.57 -36 53 32.7 ~7AKq 17.9 GVNEOCPQ58 A117LOC C2024 07 10.81696 05 13 58.85 -36 53 30.9 ~7AKq 17.9 GVNEOCPQ58 A117LOC C2024 07 10.81977 05 13 59.17 -36 53 28.9 ~7AKq 17.9 GVNEOCPQ58 A117LOC C2024 07 14.42265205 20 22.675-36 12 59.47 ~7EEb 17.77oVNEOCPW68 A117LOC C2024 07 14.42870 05 20 23.36 -36 12 55.3 ~7EGq 18.0 GVNEOCPW89 A117LOC C2024 07 14.43123605 20 23.580-36 12 53.86 ~7EEb 17.49oVNEOCPW68 A117LOC C2024 07 14.43152 05 20 23.64 -36 12 53.5 ~7EGq 18.1 GVNEOCPW89 A117LOC C2024 07 14.43434 05 20 23.92 -36 12 51.7 ~7EGq 18.1 GVNEOCPW89 A117LOC C2024 07 14.43711605 20 24.218-36 12 49.97 ~7EEb 17.96oVNEOCPW68 A117LOC C2024 07 15.41453305 22 06.629-36 02 03.84 ~7FCM 17.58oVNEOCPW68 A117LOC C2024 07 15.41996405 22 07.171-36 02 00.42 ~7FCM 17.79oVNEOCPW68 A117LOC C2024 07 15.43998805 22 09.242-36 01 47.68 ~7FCM 17.78oVNEOCPW68 A117LOC C2024 07 15.44360405 22 09.634-36 01 44.98 ~7FCM 17.69oVNEOCPW68 A117LOC KC2024 07 16.69735 05 24 19.97 -35 48 04.1 ~7GIM 18.7 VqNEOCPE94 A117LOC KC2024 07 16.71476 05 24 21.77 -35 47 53.1 ~7GIM 18.6 VqNEOCPE94 A117LOC KC2024 07 16.73213 05 24 23.54 -35 47 41.9 ~7GIM 18.6 VqNEOCPE94 A117LOC C2024 07 18.41205405 27 16.308-35 29 38.11 ~7IHq 17.91oVNEOCPW68 A117LOC C2024 07 18.41845005 27 16.978-35 29 34.30 ~7IHq 17.91oVNEOCPW68 A117LOC 3B2024 07 18.42299 05 27 17.42 -35 29 31.5 ~7IK7 18.0 TVNEOCPX07 A117LOC 3B2024 07 18.42893 05 27 18.03 -35 29 27.8 ~7IK7 VNEOCPX07 A117LOC C2024 07 18.43668605 27 18.802-35 29 23.14 ~7IHq 17.53oVNEOCPW68 A117LOC KC2024 07 19.39036 05 28 55.98 -35 19 14.8 ~7JBq 18.2 GXNEOCPX07 A117LOC KC2024 07 19.39758 05 28 56.72 -35 19 10.3 ~7JBq 18.4 GXNEOCPX07 A117LOC KC2024 07 19.40552 05 28 57.52 -35 19 05.5 ~7JBq 18.6 GXNEOCPX07 A117LOC C2024 07 19.41421005 28 58.380-35 18 59.69 ~7JC7 17.40oVNEOCPW68 A117LOC C2024 07 19.41703105 28 58.680-35 18 58.28 ~7JC7 17.60oVNEOCPW68 A117LOC C2024 07 19.42213905 28 59.189-35 18 54.76 ~7JC7 17.44oVNEOCPW68 A117LOC C2024 07 19.42960205 28 59.930-35 18 49.90 ~7JC7 17.49oVNEOCPW68 A117LOC C2024 07 19.43483905 29 00.401-35 18 46.22 ~7JC7 17.31oVNEOCPW68 A117LOC C2024 07 19.43808505 29 00.792-35 18 45.29 ~7JC7 17.68oVNEOCPW68 A117LOC C2024 07 19.44228905 29 01.195-35 18 41.98 ~7JC7 17.61oVNEOCPW68 Station data: (474) Mount John Observatory, Lake Tekapo (S43.987385 E170.464960) New Zealand. Observers A. C. Gilmore, P. M. Kilmartin. Measurer P. M. Kilmartin. 1.0-m f/7.7 reflector + CCD. (807) Cerro Tololo Observatory, La Serena (S30.169133 W70.805900) Chile. Observer R. Holmes. 0.61-m f/6.5 astrograph + CCD. (E94) Gisborne (Possum Observatory) (S38.629920 E177.883310) New Zealand. Observer J. Drummond. 0.41-m f/4.5 Newtonian reflector + CCD. (I47) Pierre Auger Observatory, Malargüe (S35.495440 W69.449700) Argentina. Observer M. Mašek. 0.3-m f/6.8 reflector + CCD. (K95) MASTER-SAAO Observatory, Sutherland (S32.380481 E20.811060) South Africa. Observers S. Bodrov, V. Lipunov, E. Gorbovskoy, Y. Kechin, N. Tiurina, P. Balanutsa, A. Kuznetsov, I. Gorbunov, F. Balakin, D. Zimnukhov, V. Kornilov, A. Krylov, D. Buckley, R. Podesta, F. Podesta, H. Levato, C. Francile. 0.4-m f/2.5 reflector + CCD. (M49) IAS Remote Observatory, Hakos (S23.236549 E16.361720) Namibia. Observers D. Husar, M. Junius. Measurer D. Husar. 0.25-m f/4.6 reflector + CCD. (Q58) Siding Spring-LCO Clamshell {#}1 (S31.272852 E149.070850) Australia/NSW. Observers T. Santana-Ros, L. Conversi, M. Micheli. Measurer M. Micheli. 0.4-m reflector + CCD. (Q59) Siding Spring-LCO Clamshell {#}2 (S31.272933 E149.070810) Australia/NSW. Observer A. Hale. 0.40-m f/8 Schmidt-Cassegrain + CCD. (W68) ATLAS Chile, Rio Hurtado (S30.471010 W70.764980) Chile. Observers L. Denneau, R. Siverd, J. Tonry, H. Weiland. Measurers L. Denneau, N. Erasmus, A. Fitzsimmons, A. Lawrence, J. Robinson, R. Siverd, J. Tonry, H. Weiland. 0.5-m reflector + CCD. (W79) Cerro Tololo-LCO Aqawan B {#}1 (S30.167669 W70.804650) Chile. Observers T. Lister, J. Chatelain, E. Gomez, S. Greenstreet, I. Kosic. Measurer T. Lister. 0.4-m f/8.0 Schmidt-Cassegrain + CCD. (W84) Cerro Tololo-DECam (S30.169594 W70.806420) Chile. Observer S. Deen. 4.0-m reflector + CCD. (W88) Slooh.com Chile Observatory, La Dehesa (S33.269126 W70.534300) Chile. Observers B. Lütkenhöner, K. Dankov, N. Paul. Measurers B. Lutkenhoner, G. Gašparović, Y. Chen, G. Y. Gasparovic, M. Kumrucu-Lohmiller, N. Paul, R. W. Anderson. 0.43-m f/6.8 Corrected Dall- Kirkham + CCD0.35-m f/11.0 Schmidt-Cassegrain + CCD. (W89) Cerro Tololo-LCO Aqawan A {#}1 (S30.167661 W70.804670) Chile. Observer A. Hale. Measurer R. Miles. 0.40-m f/8 Schmidt-Cassegrain + CCD. (X03) Observatoire SADR, Poroto (S30.533914 W70.796390) Chile. Observers J. L. Virlichie, P. Traverse. 0.35-m f/4.7 Newtonian reflector + CCD. (X07) iTelescope Deep Sky Chile, Rio Hurtado (S30.526389 W70.853610) Chile. Observer H. Sato. 0.51-m f/6.8 astrograph + CCD. (X09) Deep Random Survey, Rio Hurtado (S30.526310 W70.853300) Chile. Orbital elements: A117LOC Perihelion 2024 Nov 20.03953 +/- 0.000975 TT = 0:56:55 (JD 2460634.53953) Epoch 2024 Jul 19.0 TT = JDT 2460510.5 Earth MOID: 0.7370 AutoNEOCP M 359.24957613 +/- 0.00026 (J2000 ecliptic) n 0.00604987 +/- 2.09e-6 Peri. 345.60537 +/- 0.0008 a 29.8289778 +/- 0.00687 Node 76.21547 +/- 0.00010 e 0.9428958 +/- 1.25e-5 Incl. 73.71000 +/- 0.000046 P 162.91368 H 13.19 G 0.15 U 4.0 q 1.70335896 +/- 2.13e-5 Q 57.9545967 +/- 0.0137 119 of 120 observations 2022 May 10-2024 July 19; mean residual 0".26
